Weather History for Fort Rucker / Ozark, AL

Change the Weather History Date:

Sunday, February 24, 2013

  Actual Average (KDHN) Record (KDHN)
Temperature  
Mean Temperature 59 °F 55 °F  
Max Temperature 72 °F 67 °F 81 °F (1944)
Min Temperature 46 °F 43 °F 26 °F (1964)
Degree Days  
Heating Degree Days 6 10  
Month to date heating degree days 304  
Since 1 July heating degree days 1520  
Growing Degree Days 9 (Base 50)    
Moisture  
Dew Point 45 °F    
Average Humidity 74    
Maximum Humidity 100    
Minimum Humidity 28    
Precipitation  
Precipitation 0.21 in 0.16 in 0.87 in (1944)
Month to date precipitation 4.12  
Year to date precipitation 8.75  
Sea Level Pressure  
Sea Level Pressure 29.95 in    
Wind  
Wind Speed 2 mph (NE)    
Max Wind Speed 9 mph    
Max Gust Speed -    
Visibility 6 miles    
Events Fog , Rain , Thunderstorm    
T = Trace of Precipitation, MM = Missing Value Source: NWS Daily Summary

Daily Weather History Graph

Daily Weather History Graph

Search for Another Location

Airport:

Trip Planner

Search our weather history database for the weather conditions in past years. The results will help you decide how hot, cold, wet, or windy it might be!

Date:

Astronomy

Feb. 24, 2013 Rise Set
Actual Time 6:15 AM CST 5:37 PM CST
Civil Twilight 5:50 AM CST 6:02 PM CST
Nautical Twilight 5:22 AM CST 6:30 PM CST
Astronomical Twilight 4:54 AM CST 6:58 PM CST
Moon 4:48 PM CST (2/24) 5:10 AM CST (2/24)
Length of Visible Light 12h 11m
Length of Day
11h 22m
Waxing Gibbous, 99% of the Moon is Illuminated
Feb 24
Waxing Gibbous
Feb 25
Full
Mar 4
Last Quarter
Mar 11
New
Mar 19
First Quarter

Hourly Weather History & Observations

Time (CST) Temp. Dew Point Humidity Pressure Visibility Wind Dir Wind Speed Gust Speed Precip Events Conditions
12:09 AM 53.6 °F 51.8 °F 94% 29.95 in 10.0 mi North 3.5 mph - N/A   Overcast
12:53 AM 53.1 °F 50.0 °F 89% 29.95 in 10.0 mi Calm Calm - N/A   Mostly Cloudy
1:23 AM 51.8 °F 50.0 °F 94% 29.95 in 1.8 mi Calm Calm - N/A   Clear
1:38 AM 50.0 °F 48.2 °F 94% 29.94 in 2.0 mi Calm Calm - N/A   Clear
1:46 AM 50.0 °F 48.2 °F 94% 29.94 in 5.0 mi Calm Calm - N/A   Clear
1:53 AM 50.0 °F 48.9 °F 96% 29.94 in 3.0 mi Calm Calm - N/A   Clear
2:00 AM 50.0 °F 48.2 °F 94% 29.94 in 1.8 mi Calm Calm - N/A   Clear
2:08 AM 48.2 °F 48.2 °F 100% 29.94 in 2.5 mi Calm Calm - N/A   Clear
2:15 AM 48.2 °F 48.2 °F 100% 29.94 in 5.0 mi Calm Calm - N/A   Clear
2:26 AM 48.2 °F 46.4 °F 93% 29.94 in 1.0 mi Calm Calm - N/A   Mist
2:33 AM 48.2 °F 46.4 °F 93% 29.94 in 0.2 mi Calm Calm - N/A Fog Fog
2:53 AM 46.9 °F 46.0 °F 97% 29.94 in 0.2 mi Calm Calm - N/A Fog Fog
3:53 AM 46.9 °F 46.0 °F 97% 29.94 in 0.2 mi Calm Calm - N/A Fog Fog
4:53 AM 48.0 °F 46.9 °F 96% 29.95 in 0.2 mi Calm Calm - N/A Fog Fog
5:53 AM 48.0 °F 46.9 °F 96% 29.97 in 0.2 mi Calm Calm - N/A Fog Fog
6:53 AM 48.9 °F 48.0 °F 97% 29.99 in 0.2 mi Calm Calm - N/A Fog Fog
7:10 AM 48.2 °F 46.4 °F 93% 30.00 in 2.0 mi NE 5.8 mph - N/A   Overcast
7:18 AM 48.2 °F 46.4 °F 93% 30.00 in 5.0 mi NE 5.8 mph - N/A   Overcast
7:53 AM 48.0 °F 46.0 °F 93% 30.00 in 7.0 mi NE 6.9 mph - N/A   Overcast
8:18 AM 48.2 °F 46.4 °F 93% 30.01 in 10.0 mi ENE 5.8 mph - N/A   Mostly Cloudy
8:29 AM 50.0 °F 46.4 °F 87% 30.02 in 10.0 mi NNE 4.6 mph - N/A   Scattered Clouds
8:53 AM 53.1 °F 48.0 °F 83% 30.02 in 10.0 mi NNE 4.6 mph - N/A   Scattered Clouds
9:53 AM 57.0 °F 48.0 °F 72% 30.02 in 10.0 mi Calm Calm - 0.01 in   Clear
10:53 AM 63.0 °F 48.0 °F 58% 29.99 in 10.0 mi Variable 4.6 mph - N/A   Clear
11:53 AM 68.0 °F 45.0 °F 43% 29.98 in 10.0 mi North 3.5 mph - N/A   Clear
12:53 PM 69.1 °F 41.0 °F 36% 29.95 in 10.0 mi Variable 4.6 mph - N/A   Clear
1:53 PM 72.0 °F 37.0 °F 28% 29.94 in 10.0 mi SE 9.2 mph - N/A   Clear
2:53 PM 71.1 °F 36.0 °F 28% 29.92 in 10.0 mi Variable 3.5 mph - N/A   Clear
3:53 PM 70.0 °F 36.0 °F 29% 29.92 in 10.0 mi Variable 4.6 mph - N/A   Clear
4:53 PM 68.0 °F 39.9 °F 36% 29.92 in 10.0 mi Calm Calm - N/A   Clear
5:53 PM 61.0 °F 44.1 °F 54% 29.93 in 10.0 mi Calm Calm - N/A   Partly Cloudy
6:53 PM 62.1 °F 41.0 °F 46% 29.93 in 10.0 mi Calm Calm - N/A   Mostly Cloudy
7:53 PM 61.0 °F 39.9 °F 46% 29.93 in 10.0 mi Calm Calm - N/A   Mostly Cloudy
8:53 PM 62.1 °F 39.9 °F 44% 29.93 in 10.0 mi ENE 3.5 mph - N/A   Mostly Cloudy
9:53 PM 62.1 °F 39.9 °F 44% 29.91 in 10.0 mi Calm Calm - N/A   Scattered Clouds
10:13 PM 62.6 °F 39.2 °F 42% 29.90 in 10.0 mi Variable 3.5 mph - N/A Thunderstorm Thunderstorm
10:53 PM 62.1 °F 39.9 °F 44% 29.88 in 10.0 mi Variable 3.5 mph - N/A Thunderstorm Thunderstorm
11:27 PM 55.4 °F 48.2 °F 77% 29.93 in 1.8 mi Variable 4.6 mph - 0.14 in Rain , Thunderstorm Heavy Thunderstorms and Rain
11:39 PM 55.4 °F 50.0 °F 82% 29.94 in 3.0 mi Calm Calm - 0.19 in Rain , Thunderstorm Thunderstorms and Rain
11:53 PM 54.0 °F 51.1 °F 90% 29.93 in 6.0 mi Calm Calm - 0.20 in Rain , Thunderstorm Light Thunderstorms and Rain